Location: Cleveland
(41.4990°N, 81.6960°W)
Time: 07:06:09
(UTC-05:00)

X-37B - Visible Passes

Search period start: 29 November 2022 00:00
Search period end: 09 December 2022 00:00
Orbit: 277 x 277 km, 45.0° (Epoch: 01 November)

Date Brightness Start Highest point End Pass type
(mag) Time Alt. Az. Time Alt. Az. Time Alt. Az.
05 Dec 2.5 18:30:26 10° S 18:31:11 13° SSE 18:31:11 13° SSE visible
06 Dec 1.7 18:30:23 10° SSW 18:32:02 24° S 18:32:02 24° S visible
07 Dec 0.7 18:30:45 10° SW 18:32:48 45° S 18:32:48 45° S visible
08 Dec 0.2 18:31:21 10° WSW 18:33:32 67° WSW 18:33:32 67° WSW visible
